Terminal Aerodrome Forecast
Issued by NWS

Home | Current Version | Previous Version | Text Only | Print | Product List | Glossary On
Versions: 1 2 3 4 5 6 7 8 9 10 11 12 13 14 15 16 17 18 19 20 21
000
FTUS43 KDLH 290130 AAA
TAFHIB
TAF AMD
KHIB 290130Z 2902/2924 23011G21KT P6SM BKN080
     FM290500 25009KT P6SM SKC WS010/25040KT
     FM291400 27018G35KT P6SM OVC050=

USA.gov is the U.S. government's official web portal to all federal, state and local government web resources and services.